Regional Weather Roundup
Issued by NWS Bismarck, ND

Home | Current Version | Previous Version | Text Only | Print | Product List | Glossary On
Versions: 1 2 3 4 5 6 7 8 9 10 11 12 13 14 15 16 17 18 19 20 21 22 23 24 25 26 27 28 29 30 31 32 33 34 35 36 37 38 39 40 41 42 43 44 45 46 47 48 49 50
000
ASUS43 KBIS 051602
RWRBIS

NWR BROADCAST TEXT
NATIONAL WEATHER SERVICE BISMARCK ND
1100 AM CDT SUN JUL 05 2015

NOTE: "FAIR" INDICATES FEW OR NO CLOUDS BELOW 12,000 FEET WITH NO
SIGNIFICANT WEATHER AND/OR OBSTRUCTIONS TO VISIBILITY.


CITY           SKY/WX    TMP DP  RH WIND       PRES   REMARKS
WILLISTON      PTSUNNY   71  55  56 N22G33    29.92R HAZE
MINOT          CLOUDY    67  63  87 N9        29.81F FOG
MINOT AFB      NOT AVBL
BISMARCK       PTSUNNY   72  62  71 N12       29.85R
DICKINSON      CLOUDY    66  61  84 SE10      29.84F
GARRISON         N/A     68  62  81 NE13      29.82R
HETTINGER ARPT LGT RAIN  63  60  90 NE24G32   29.84F
JAMESTOWN      CLOUDY    74  68  81 W10       29.77S
HAZEN          FAIR      66  63  88 NE6       29.84R
OAKES            N/A     77  73  88 SW15G22   29.76S
STANLEY        PTSUNNY   68  68 100 N15       29.88R
$$

CITY           SKY/WX    TMP DP  RH WIND       PRES   REMARKS
GRAND FORKS    CLOUDY    74  69  85 S8        29.72F
GRAND FORKS AF CLOUDY    73  68  85 S6        29.73F
DEVILS LAKE    CLOUDY    64  61  88 NE17G25   29.74F
FARGO          MOSUNNY   81  67  62 S17       29.74R
CAVALIER       TSTM      64  64 100 NW5       29.79R
GRAFTON        TSTM      66  66 100 N16G31    29.76R VSB<1/4
GWINNER        FAIR      81  68  65 SW20G28   29.75F
LANGDON        RAIN      64  64 100 N13       29.81F
$$

CITY           SKY/WX    TMP DP  RH WIND       PRES   REMARKS
ABERDEEN       MOSUNNY   79  68  69 MISG      29.75S
MOBRIDGE       PTSUNNY   80  73  79 NW14      29.78R
BUFFALO          N/A     75  61  61 NE23G29   29.81R
RAPID CITY     MOSUNNY   78  65  63 N18G25    29.83R
GLASGOW        PTSUNNY   66  48  52 N16       30.02S
SIDNEY         MOSUNNY   70  54  56 N15       29.94R
WOLF POINT     SUNNY     71  52  50 N23       29.97R HAZE
GLENDIVE       CLOUDY    64  59  82 NW16      29.97R
MILES CITY     CLOUDY    65  54  67 N15       29.99R HAZE
BAKER          MOSUNNY   73  58  59 NE5       29.93R
$$

CITY           SKY/WX    TMP DP  RH WIND       PRES   REMARKS
BILLINGS       CLOUDY    60  52  74 NE13      30.10R HAZE
GREAT FALLS    LGT RAIN  51  50  96 N14       30.16S FOG
$$




USA.gov is the U.S. government's official web portal to all federal, state and local government web resources and services.